ANTELSAT
1 40034U 14033AA 18332.75857951 .00000221 00000-0 40277-4 0 9995
2 40034 97.7859 203.1560 0059581 28.8852 331.5633 14.74007269238924
VELOX-1
1 40057U 14034E 18333.75728728 .00000252 00000-0 42887-4 0 9994
2 40057 98.2177 87.8109 0011598 152.1834 208.0006 14.77538261238095
DAURIA DX 1
1 40071U 14037C 18333.85909108 .00000076 00000-0 17266-4 0 9994
2 40071 98.3988 112.8563 0009111 143.0740 217.1100 14.81212518237520
UKUBE-1
1 40074U 14037F 18333.36117009 .00000250 00000-0 37254-4 0 9997
2 40074 98.4080 119.2160 0004963 134.5783 225.5827 14.83921106237793
HODOYOSHI-1
1 40299U 14070B 18333.83291758 .00000436 00000-0 21421-4 0 9994
2 40299 97.3678 52.6018 0014122 35.2257 85.7690 15.23119872225690
CHUBUSAT-1
1 40300U 14070C 18333.74041501 .00000568 00000-0 27927-4 0 9999
2 40300 97.3511 47.7948 0021346 43.7579 71.7410 15.21812401225458
QSAT-EOS
1 40301U 14070D 18333.80760097 .00001223 00000-0 50989-4 0 9998
2 40301 97.3470 49.8734 0027107 31.7666 92.4899 15.25288106225661
FIREBIRD FU3
1 40377U 15003B 18333.81754926 .00002423 00000-0 10030-3 0 9998
2 40377 99.0878 268.4243 0130281 39.8291 321.2411 15.17878602211441
FIREBIRD FU4
1 40378U 15003C 18333.80551268 .00002336 00000-0 96783-4 0 9995
2 40378 99.0881 268.4759 0130504 39.7536 321.3167 15.17885595211445
GRIFEX
1 40379U 15003D 18333.76953834 .00001554 00000-0 70583-4 0 9997
2 40379 99.0881 263.7041 0138024 54.9216 306.4865 15.14815678211167
NO-84
1 40654U 15025D 18333.34689228 .00007294 00000-0 11308-3 0 04715
2 40654 054.9915 008.6872 0149753 169.1307 191.2922 15.43525497081326
NO-83
1 40655U 15025E 18333.36600560 .00018590 00000-0 15864-3 0 05555
2 40655 054.9739 290.1966 0085111 214.8824 144.6607 15.64956375082073
DEORBITSAIL
1 40719U 15032E 18333.67506572 .00000357 00000-0 58467-4 0 9997
2 40719 97.9269 224.3295 0015232 232.6222 127.3601 14.76576848182595
NUDT-PHONESAT
1 40900U 15049B 18333.77396451 .00001496 00000-0 68517-4 0 9993
2 40900 97.4402 340.1852 0013626 162.3481 284.4211 15.21977436177098
XW-2A
1 40903U 15049E 18333.73481405 .00001288 00000-0 33105-4 0 9990
2 40903 97.3654 10.1239 0014775 146.2000 307.9642 15.41106925179298
XW-2C
1 40906U 15049H 18333.87788918 .00000431 00000-0 26288-4 0 9990
2 40906 97.4632 334.3929 0015007 169.1916 239.4605 15.15410983176584
XW-2D
1 40907U 15049J 18333.75750881 .00000419 00000-0 25507-4 0 9995
2 40907 97.4606 333.9565 0014231 166.9845 299.3489 15.15578009176579
LILACSAT-2
1 40908U 15049K 18333.76951878 -.00000071 00000-0 -30215-6 0 9996
2 40908 97.4730 333.1080 0016035 170.9650 284.1620 15.13641541176417
XW-2E
1 40909U 15049L 18333.73147216 .00000892 00000-0 47981-4 0 9992
2 40909 97.4571 336.2807 0013950 164.4243 282.3649 15.17364104176716
XW-2F
1 40910U 15049M 18333.75750142 .00000599 00000-0 33777-4 0 9996
2 40910 97.4609 335.5743 0015019 161.8872 247.1037 15.16878235176554
XW-2B
1 40911U 15049N 18333.90637847 .00000292 00000-0 18873-4 0 9990
2 40911 97.4641 334.6975 0014472 166.8461 260.7330 15.15515640176496
DCBB
1 40912U 15049P 18333.76228993 .00000742 00000-0 38491-4 0 9991
2 40912 97.4508 338.7969 0015907 148.0390 267.8798 15.19138792176808
TW-1C
1 40926U 15051B 18333.82491933 .00006993 00000-0 11851-3 0 9996
2 40926 97.1658 15.5130 0010450 41.0683 46.6100 15.51783308178976
TW-1A
1 40928U 15051D 18333.80270131 .00002356 00000-0 61765-4 0 9990
2 40928 97.1688 4.4487 0013542 83.3269 36.4920 15.39579189178251
IO-86
1 40931U 15052B 18333.67700458 .00000643 00000-0 45987-6 0 9997
2 40931 5.9984 49.9435 0012768 192.7406 167.2233 14.76591765171500
LQSat
1 40958U 15057A 18333.84089056 .00000021 00000-0 10930-4 0 9992
2 40958 97.9243 43.1935 0018480 161.6751 198.5123 14.73058054169232
AO-85
1 40967U 15058D 18333.47944620 .00000118 00000-0 30124-4 0 05225
2 40967 064.7786 049.4004 0213781 263.9567 093.7156 14.75826163078040
ATHENOXAT-1
1 41168U 15077C 18333.12971065 .00001367 00000-0 37294-4 0 9995
2 41168 14.9794 252.7419 0011615 173.2905 30.7280 15.13163569163399
ChubuSat-2
1 41338U 16012B 18332.47691923 .00000309 00000-0 17305-4 0 9999
2 41338 31.0043 349.7785 0013851 260.2963 99.6107 15.00061054152520
ChubuSat-3
1 41339U 16012C 18333.46848414 .00000281 00000-0 15080-4 0 9996
2 41339 31.0123 341.8415 0013730 278.0023 81.9052 15.00242909152661
Horyu-4
1 41340U 16012D 18333.16822886 .00000456 00000-0 28053-4 0 9998
2 41340 31.0061 337.0272 0014023 289.6664 70.2458 15.01116425152707
OUFTI-1
1 41458U 16025C 18333.79741883 .00001110 00000-0 61723-4 0 9997
2 41458 98.1195 45.3880 0166931 312.4163 46.3033 15.05176006142356
e-st@r-II
1 41459U 16025D 18333.76951299 -.00000011 00000-0 43023-5 0 9993
2 41459 98.1190 45.1272 0168362 313.5475 45.1844 15.04860784142329
AAUSAT4
1 41460U 16025E 18333.77914516 .00001058 00000-0 58471-4 0 9990
2 41460 98.1151 45.9310 0158837 308.1965 50.5039 15.06494008142419
LO-87
1 41557U 16033B 18333.85944918 .00000054 00000-0 48822-5 0 9999
2 41557 97.4303 57.5025 0012486 289.1753 70.8134 15.26686787139440
NuSat2
1 41558U 16033C 18333.81555976 .00001037 00000-0 39976-4 0 9999
2 41558 97.4323 57.8668 0011552 293.0165 66.9856 15.28569665139447
Lapan A3
1 41603U 16040E 18333.82048442 .00000223 00000-0 13616-4 0 9993
2 41603 97.3912 32.1385 0014424 27.7775 84.5075 15.19638884135235
Swayam
1 41607U 16040J 18333.74819361 .00001185 00000-0 53740-4 0 9994
2 41607 97.3940 34.2939 0014154 24.3573 335.8329 15.22715779135290
Pratham
1 41783U 16059A 18333.17725499 .00000047 00000-0 18508-4 0 9993
2 41783 98.0977 31.8909 0032392 298.4471 61.3468 14.62958095116082
AlSat 1N
1 41789U 16059G 18333.74713348 .00000104 00000-0 28900-4 0 9993
2 41789 98.0998 34.0164 0026992 287.3483 72.4764 14.64198512116240
ScatSat
1 41790U 16059H 18333.69017609 .00000000 00000-0 11264-4 0 9996
2 41790 98.2391 18.2920 0017258 306.2830 53.6770 14.50881847115182
TY-1
1 41844U 16066D 18333.91220126 .00001129 00000-0 49834-4 0 9996
2 41844 97.4059 338.7342 0015417 168.0833 252.6063 15.23736575114110
Pegasus-1
1 41846U 16066F 18332.53900225 .00000297 00000-0 54559-4 0 9995
2 41846 98.7382 4.2491 0368911 118.9994 244.8693 14.37447566107518
CAS-2T
1 41847U 16066G 18333.65517715 .00000064 00000-0 19390-4 0 9994
2 41847 98.7335 5.8869 0367106 112.7544 251.2870 14.37939976108107
TO-89
1 41932U 98067KU 18333.84133277 .00134544 18612-4 28990-3 0 9996
2 41932 51.6235 197.2817 0005372 172.9590 187.1495 15.98175196107025
EO-88
1 42017U 17008BX 18332.89200374 .00001263 00000-0 53587-4 0 9994
2 42017 097.4301 036.8440 0007145 148.5149 211.6518 15.24932356099163
HAVELSAT
1 42700U 98067LH 18333.87808637 .00055586 00000-0 23080-3 0 9993
2 42700 51.6262 220.2709 0005708 158.9193 201.2046 15.85184694 88164
SOMP2
1 42701U 98067LJ 18333.77540272 .00046171 00000-0 21800-3 0 9999
2 42701 51.6321 224.1804 0005320 148.2578 211.8746 15.82552382 88095
PHOENIX
1 42706U 98067LP 18333.80291065 .00029523 00000-0 17440-3 0 9998
2 42706 51.6286 227.3929 0003260 116.2452 243.8884 15.77869084 87978
